Location: Eschentzwiller
(47.7125°N, 7.3981°E)
Time: 04:28:21
(UTC+00:00)

Cosmos 44 Rocket - Pass Details

Date: 27 October 2020
Orbit: 642 x 748 km, 65.1° (Epoch: 01 December)

Event Time Altitude Azimuth Distance (km) Brightness Sun altitude
Rises 18:30:27 0° 197° (SSW) 2,978 6.7 -22.5°
Reaches altitude 10° 18:32:47 10° 191° (S) 2,084 5.8 -22.8°
Enters shadow 18:35:25 30° 171° (S) 1,203 4.3 -23.3°
